Visibility
15.0 15.0 15.0 15.0 15.0 15.0 15.0 15.0 15.0 15.0 15.0 15.0 15.0 11.7 8.2 2.4 15.0 10.1 15.0 15.0 15.0 4.4 15.0 8.4 15.0 9.3 15.0 15.0 14.2 14.5 12.1 10.7 0.1 15.0 15.0 15.0 15.0 15.0 15.0 15.0 15.0 15.0 15.0
15.0 15.0 15.0 15.0 15.0 15.0 15.0 15.0 15.0 15.0 15.0 15.0 15.0 15.0 15.0 15.0 15.0 15.0 15.0 15.0 15.0 14.3 15.0 15.0 15.0 15.0 15.0 15.0 15.0 14.9 15.0 15.0 10.5 15.0 15.0 15.0 15.0 15.0 13.8 5.0 15.0 15.0 15.0
15.0 15.0 15.0 15.0 15.0 15.0 15.0 15.0 15.0 15.0 15.0 15.0 15.0 15.0 15.0 15.0 15.0 15.0 15.0 15.0 15.0 15.0 15.0 15.0 15.0 15.0 15.0 15.0 15.0 15.0 15.0 15.0 8.3 4.9 15.0 15.0 15.0 15.0 15.0 11.3 8.5 15.0 13.7
15.0 15.0 15.0 15.0 15.0 15.0 15.0 15.0 15.0 15.0 15.0 15.0 15.0 15.0 15.0 15.0 15.0 15.0 15.0 15.0 11.5 15.0 15.0 15.0 15.0 15.0 15.0 15.0 8.6 10.8 15.0 15.0 9.7 9.3 10.3 0.3 13.0 15.0 8.7 0.2 0.0 3.9 12.2
15.0 15.0 15.0 15.0 15.0 15.0 15.0 15.0 15.0 15.0 15.0 15.0 15.0 11.7 15.0 14.0 15.0 15.0 15.0 15.0 15.0 15.0 15.0 15.0 15.0 15.0 15.0 15.0 7.2 8.8 0.3 8.1 0.2 0.1 0.3 0.1 0.1 0.0 0.1 1.1 7.2 0.1 1.5
15.0 15.0 15.0 15.0 15.0 15.0 15.0 15.0 15.0 15.0 15.0 15.0 15.0 14.9 4.3 6.2 15.0 15.0 15.0 15.0 11.8 4.2 15.0 15.0 15.0 15.0 15.0 15.0 8.6 3.0 15.0 0.7 0.1 0.0 2.5 12.9 14.8 15.0 15.0 0.5 0.2 0.0 0.0
15.0 15.0 15.0 15.0 15.0 15.0 15.0 15.0 15.0 15.0 15.0 15.0 15.0 15.0 15.0 15.0 15.0 15.0 15.0 9.4 15.0 11.4 12.8 6.9 15.0 15.0 15.0 15.0 5.2 12.9 15.0 15.0 15.0 15.0 15.0 12.8 15.0 12.1 15.0 6.3 0.1 12.6 3.8
15.0 15.0 15.0 15.0 15.0 15.0 15.0 15.0 15.0 15.0 15.0 15.0 15.0 15.0 15.0 15.0 15.0 15.0 15.0 15.0 15.0 15.0 11.4 15.0 15.0 15.0 14.1 12.3 9.1 15.0 15.0 15.0 15.0 15.0 15.0 15.0 15.0 15.0 15.0 15.0 8.5 7.5 6.9
15.0 15.0 15.0 15.0 15.0 11.3 14.0 12.0 15.0 15.0 15.0 15.0 15.0 15.0 15.0 15.0 15.0 15.0 15.0 15.0 15.0 15.0 15.0 15.0 15.0 15.0 15.0 5.7 14.2 13.4 15.0 15.0 3.1 15.0 15.0 15.0 15.0 15.0 15.0 0.6 0.1 0.1 0.1
15.0 15.0 15.0 15.0 15.0 15.0 15.0 13.9 15.0 15.0 15.0 15.0 15.0 15.0 15.0 15.0 15.0 15.0 15.0 15.0 14.5 15.0 15.0 15.0 15.0 15.0 15.0 14.7 15.0 15.0 4.4 6.0 15.0 15.0 15.0 1.8 11.0 15.0 15.0 15.0 11.2 12.4 3.6
15.0 15.0 15.0 15.0 15.0 15.0 15.0 15.0 15.0 15.0 15.0 15.0 15.0 15.0 15.0 15.0 15.0 15.0 4.7 9.0 15.0 15.0 7.2 15.0 15.0 3.8 0.3 0.3 12.7 15.0 14.5 11.7 15.0 15.0 8.6 0.1 0.1 0.1 1.6 13.7 9.7 2.9 4.5
15.0 15.0 15.0 15.0 15.0 15.0 15.0 15.0 15.0 15.0 15.0 15.0 15.0 15.0 9.2 15.0 15.0 15.0 0.1 0.1 12.5 15.0 9.9 15.0 10.8 0.2 0.0 0.0 0.1 0.6 2.3 15.0 15.0 0.2 0.0 0.3 0.7 0.1 15.0 13.3 10.6 6.0 4.9
4.6 15.0 15.0 15.0 15.0 15.0 15.0 15.0 15.0 15.0 15.0 15.0 14.1 11.9 13.9 4.0 8.9 0.0 0.0 0.0 0.0 1.2 13.1 15.0 0.2 0.0 0.0 0.0 0.0 0.1 0.1 6.0 15.0 0.1 0.1 0.1 15.0 14.8 15.0 15.0 13.3 15.0 13.9
15.0 15.0 15.0 15.0 15.0 15.0 15.0 15.0 15.0 15.0 15.0 13.5 15.0 12.8 13.0 15.0 5.7 15.0 0.1 0.0 0.0 0.0 0.2 0.2 0.0 0.0 0.0 0.0 0.0 0.0 5.1 9.0 15.0 15.0 7.5 9.6 12.7 15.0 15.0 15.0 15.0 15.0 15.0
15.0 15.0 15.0 15.0 15.0 15.0 15.0 15.0 15.0 15.0 10.4 1.1 5.5 0.1 0.1 0.0 2.0 0.0 0.0 0.0 0.6 0.1 0.0 0.0 0.0 0.0 0.1 0.1 0.1 0.2 9.6 15.0 14.4 12.0 14.2 0.1 4.5 0.1 7.8 15.0 15.0 15.0 15.0
6.5 15.0 15.0 15.0 15.0 15.0 15.0 15.0 15.0 15.0 15.0 0.2 0.0 0.0 0.1 0.0 0.0 0.0 0.0 0.0 0.0 0.0 0.1 0.1 0.2 0.1 0.0 0.1 0.1 0.1 0.4 3.7 0.5 15.0 15.0 7.9 15.0 10.2 0.1 1.1 15.0 15.0 15.0
15.0 15.0 15.0 15.0 15.0 0.4 0.1 0.1 12.9 15.0 15.0 0.1 0.1 0.1 0.1 0.0 0.0 0.0 0.0 0.0 0.0 0.0 4.2 1.3 14.5 0.9 4.4 0.3 0.2 0.5 0.1 14.0 14.1 6.9 12.6 15.0 15.0 11.5 5.8 8.8 6.6 15.0 11.2
15.0 11.4 15.0 4.6 0.4 0.1 0.1 6.1 1.7 0.1 0.0 12.4 3.0 0.1 0.1 0.0 0.0 0.0 0.0 0.0 0.0 0.0 0.2 0.6 0.3 0.2 15.0 0.4 0.2 0.3 0.3 0.1 0.1 6.9 0.7 10.4 15.0 15.0 15.0 15.0 15.0 5.6 12.7
15.0 15.0 15.0 15.0 15.0 10.2 15.0 15.0 1.5 0.1 0.1 0.1 9.5 3.9 6.6 0.2 0.0 0.0 0.0 3.8 10.8 0.0 0.1 15.0 15.0 15.0 15.0 15.0 9.5 7.4 11.6 1.0 0.6 0.2 3.1 4.0 12.7 15.0 15.0 15.0 10.0 7.6 15.0
15.0 15.0 15.0 15.0 15.0 15.0 15.0 15.0 0.7 0.2 0.2 0.1 0.0 0.1 1.2 11.8 9.2 0.1 0.1 0.4 8.0 7.7 6.2 15.0 15.0 15.0 15.0 10.4 2.4 0.4 0.2 0.1 13.1 15.0 11.2 13.8 12.1 9.7 15.0 15.0 15.0 15.0 15.0
15.0 15.0 15.0 15.0 15.0 15.0 15.0 5.3 7.8 1.9 0.3 0.2 0.1 15.0 15.0 1.1 2.4 2.5 1.9 0.1 0.1 0.4 3.6 9.6 15.0 15.0 14.6 13.1 3.6 0.7 15.0 13.4 15.0 12.0 15.0 15.0 15.0 15.0 15.0 15.0 15.0 15.0 15.0
15.0 15.0 15.0 15.0 15.0 15.0 15.0 15.0 15.0 15.0 15.0 15.0 12.6 15.0 15.0 15.0 11.8 4.2 4.2 4.3 2.2 5.3 2.6 0.2 9.4 15.0 15.0 15.0 15.0 15.0 15.0 15.0 15.0 15.0 7.8 12.7 15.0 15.0 15.0 15.0 14.9 12.5 15.0
15.0 15.0 15.0 15.0 15.0 15.0 15.0 15.0 15.0 15.0 15.0 15.0 15.0 15.0 15.0 0.9 0.6 0.2 0.3 0.5 1.6 2.7 5.6 6.4 6.0 1.3 6.7 7.5 7.6 3.2 5.5 13.0 15.0 12.7 15.0 10.2 15.0 15.0 15.0 15.0 15.0 15.0 15.0
15.0 15.0 15.0 15.0 15.0 15.0 15.0 15.0 15.0 15.0 15.0 15.0 15.0 15.0 15.0 15.0 15.0 15.0 15.0 15.0 15.0 15.0 15.0 13.0 5.2 0.2 2.4 6.7 2.7 0.1 0.1 0.1 0.5 3.5 15.0 15.0 15.0 0.1 15.0 15.0 15.0 15.0 15.0
15.0 15.0 15.0 15.0 15.0 15.0 15.0 15.0 15.0 15.0 15.0 15.0 15.0 15.0 15.0 15.0 15.0 15.0 15.0 15.0 15.0 15.0 15.0 15.0 4.8 1.2 0.2 0.2 0.2 0.5 0.2 0.1 0.0 0.0 0.1 15.0 15.0 15.0 14.8 7.8 12.3 15.0 15.0
15.0 15.0 15.0 15.0 15.0 15.0 15.0 15.0 15.0 15.0 15.0 15.0 15.0 15.0 15.0 15.0 15.0 15.0 15.0 15.0 15.0 15.0 15.0 15.0 15.0 15.0 15.0 6.3 0.5 0.4 0.3 0.1 0.1 0.0 0.9 14.4 9.7 9.0 14.4 15.0 11.9 15.0 15.0